Location: Blanot
(47.1713°N, 4.2340°E)
Time: 08:51:07
(UTC+00:00)

Cosmos 1900 - Pass Details

Date: 14 July 2020
Orbit: 681 x 740 km, 66.1° (Epoch: 14 August)

Event Time Altitude Azimuth Distance (km) Brightness Sun altitude
Exits shadow 02:29:33 18° 214° (SW) 1,690 5.6 -12.3°
Maximum altitude 02:33:15 89° 300° (WNW) 708 4.3 -11.9°
Drops below altitude 10° 02:38:16 10° 35° (NE) 2,196 8.4 -11.4°
Sets 02:40:38 0° 36° (NE) 3,129 9.9 -11.1°
